Home > Weather > Spiez > Past weeks

Flag for Switzerland Past Weather in Spiez, Bern, Switzerland — Yesterday and Last 2 Weeks

Now
67 °F

Mild.


Feels Like: 67 °F
Forecast: 54 / 74 °F
Wind: 6 mph from Northwest

Location: Interlaken

Current Time: Jul 2, 2016 at 9:29:32 AM

Latest Report: Jul 2, 2016 at 8:00 AM


Visibility: N/A

Pressure: 30.00 "Hg (27.95 "Hg at 607m altitude)

Humidity: 71%

Dew Point: 58 °F

Location of SpiezLocation

Past Weather in Spiez — Graph

°F

Spiez Temperature Yesterday

Maximum temperature yesterday: 79 °F (at 6:00 PM)
Minimum temperature yesterday: 60 °F (at 5:00 AM)
Average temperature yesterday: 69 °F

High & Low Weather Summary for the Past Weeks

 TemperatureHumidityPressure
High88 °F (Jun 23, 6:00 PM)100% (Jun 21, 6:00 AM)30.30 "Hg (Jun 21, 6:00 AM)
Low49 °F (Jun 18, 2:00 AM)38% (Jun 27, 7:00 PM)29.84 "Hg (Jun 29, 6:00 PM)
Average64 °F78%30.08 "Hg
* Reported Jun 17 8:00 AM — Jul 2 8:00 AM, Spiez, Weather by CustomWeather, © 2016

Note: Actual official high and low records may vary slightly from our data, if they occured in-between our weather recording intervals... More about our weather records

Advertising

Spiez Weather History for the Previous 24 Hours

Scroll right to see more
 ConditionsComfort  
Time TempWeatherWind HumidityBarometerVisibility
8:00 AM
Sat, Jul 2
67 °FMild.6 mph71%30.00 "HgN/A
7:00 AM66 °FMild.5 mph77%30.01 "HgN/A
6:00 AM64 °FMild.1 mph83%30.00 "HgN/A
5:00 AM64 °FMild.5 mph84%29.98 "HgN/A
4:00 AM67 °FMild.5 mph71%29.98 "HgN/A
3:00 AM64 °FMild.2 mph84%29.99 "HgN/A
2:00 AM64 °FMild.1 mph83%29.99 "HgN/A
1:00 AM65 °FMild.2 mph84%30.00 "HgN/A
12:00 AM66 °FMild.3 mph84%30.01 "HgN/A
11:00 PM
Fri, Jul 1
68 °FMild.3 mph82%30.00 "HgN/A
10:00 PM70 °FMild.3 mph81%29.99 "HgN/A
9:00 PM72 °FMild.5 mph76%29.96 "HgN/A
8:00 PM76 °FMild.3 mph68%29.93 "HgN/A
7:00 PM79 °FWarm.6 mph55%29.93 "HgN/A
6:00 PM79 °FWarm.7 mph56%29.93 "HgN/A
5:00 PM79 °FWarm.9 mph55%29.94 "HgN/A
4:00 PM77 °FMild.8 mph56%29.95 "HgN/A
3:00 PM77 °FWarm.8 mph56%29.96 "HgN/A
2:00 PM76 °FMild.8 mph59%29.98 "HgN/A
1:00 PM74 °FMild.7 mph62%30.00 "HgN/A
12:00 PM72 °FMild.9 mph64%30.03 "HgN/A
11:00 AM70 °FMild.5 mph70%30.05 "HgN/A
10:00 AM68 °FMild.3 mph74%30.05 "HgN/A
9:00 AM65 °FMild.2 mph85%30.06 "HgN/A
Weather by CustomWeather, © 2016

See weather overviewHow to use our weather pages